Location: Oshawa
(43.9000°N, 78.8670°W)
Time: 03:38:49
(UTC-05:00)

Courier 1B - All Passes

Search period start: 19 December 2014 00:00
Search period end: 29 December 2014 00:00
Orbit: 963 x 1209 km, 28.3° (Epoch: 18 December)

Date Brightness Start Highest point End Pass type
(mag) Time Alt. Az. Time Alt. Az. Time Alt. Az.
19 Dec - 11:51:17 10° SSW 11:55:34 18° SSE 11:59:58 10° SE daylight
19 Dec - 13:43:35 10° SW 13:48:33 22° S 13:53:44 10° SE daylight
19 Dec - 15:37:41 10° SW 15:41:36 16° SSW 15:45:37 10° SSE daylight
20 Dec - 10:58:30 10° SSW 11:02:08 15° SSE 11:05:51 10° SE daylight
20 Dec - 12:50:12 10° SW 12:55:03 21° S 13:00:05 10° SE daylight
20 Dec - 14:43:46 10° SW 14:48:05 17° SSW 14:52:33 10° SSE daylight
21 Dec - 10:06:05 10° S 10:08:44 13° SSE 10:11:24 10° SE daylight
21 Dec - 11:56:57 10° SW 12:01:35 20° S 12:06:21 10° SE daylight
21 Dec - 13:50:03 10° SW 13:54:35 19° S 13:59:16 10° SSE daylight
21 Dec - 15:46:55 10° SSW 15:47:31 10° SSW 15:48:08 10° SSW daylight
22 Dec - 11:03:48 10° SSW 11:08:08 19° S 11:12:34 10° SE daylight
22 Dec - 12:56:29 10° SW 13:01:06 20° S 13:05:52 10° SE daylight
22 Dec - 14:51:21 10° SW 14:54:03 13° SSW 14:56:49 10° S daylight
23 Dec - 10:10:49 10° SSW 10:14:42 17° SSE 10:18:40 10° SE daylight
23 Dec - 12:03:01 10° SW 12:07:38 20° S 12:12:22 10° SE daylight
23 Dec - 13:57:05 10° SW 14:00:35 15° SSW 14:04:10 10° SSE daylight
24 Dec - 09:18:03 10° SSW 09:21:18 14° SSE 09:24:35 10° SE daylight
24 Dec - 11:09:39 10° SW 11:14:11 20° S 11:18:48 10° SE daylight
24 Dec - 13:03:11 10° SW 13:07:08 17° SSW 13:11:11 10° SSE daylight
25 Dec - 08:25:42 10° S 08:27:55 12° SSE 08:30:08 10° SE daylight
25 Dec - 10:16:22 10° SW 10:20:45 19° S 10:25:11 10° SE daylight
25 Dec - 12:09:28 10° SW 12:13:41 18° S 12:18:00 10° SSE daylight
26 Dec - 09:23:11 10° SSW 09:27:19 18° S 09:31:28 10° SE daylight
26 Dec - 11:15:53 10° SW 11:20:15 19° S 11:24:41 10° SE daylight
26 Dec - 13:10:50 10° SW 13:13:07 12° SSW 13:15:26 10° S daylight
27 Dec - 08:30:08 10° SSW 08:33:55 16° SSE 08:37:40 10° SE daylight
27 Dec - 10:22:22 10° SW 10:26:49 20° S 10:31:18 10° SE daylight
27 Dec - 12:16:30 10° SW 12:19:42 14° SSW 12:22:58 10° SSE daylight
28 Dec - 07:37:18 10° SSW 07:40:30 14° SSE 07:43:41 10° SE daylight
28 Dec - 09:28:56 10° SW 09:33:23 20° S 09:37:50 10° SE daylight
28 Dec - 11:22:32 10° SW 11:26:17 16° SSW 11:30:05 10° SSE daylight
